Year,Month,Day,Hour,Minute,Value (Times are PST for temperature in C)
2009,07,25,00,00,17.20
2009,07,25,00,01,17.20
2009,07,25,00,02,17.10
2009,07,25,00,03,17.10
2009,07,25,00,04,17.10
2009,07,25,00,05,17.10
2009,07,25,00,06,17.00
2009,07,25,00,07,17.00
2009,07,25,00,08,17.00
2009,07,25,00,09,17.00
2009,07,25,00,10,16.90
2009,07,25,00,11,16.90
2009,07,25,00,12,16.90
2009,07,25,00,13,16.80
2009,07,25,00,14,16.80
2009,07,25,00,15,16.80
2009,07,25,00,16,16.80
2009,07,25,00,17,16.80
2009,07,25,00,18,16.80
2009,07,25,00,19,16.70
2009,07,25,00,20,16.70
2009,07,25,00,21,16.70
2009,07,25,00,22,16.70
2009,07,25,00,23,16.70
2009,07,25,00,24,16.70
2009,07,25,00,25,16.70
2009,07,25,00,26,16.60
2009,07,25,00,27,16.60
2009,07,25,00,28,16.60
2009,07,25,00,29,16.60
2009,07,25,00,30,16.60
2009,07,25,00,31,16.60
2009,07,25,00,32,16.60
2009,07,25,00,33,16.60
2009,07,25,00,34,16.60
2009,07,25,00,35,16.60
2009,07,25,00,36,16.60
2009,07,25,00,37,16.60
2009,07,25,00,38,16.60
2009,07,25,00,39,16.60
2009,07,25,00,40,16.60
2009,07,25,00,41,16.60
2009,07,25,00,42,16.60
2009,07,25,00,43,16.60
2009,07,25,00,44,16.60
2009,07,25,00,45,16.60
2009,07,25,00,46,16.60
2009,07,25,00,47,16.60
2009,07,25,00,48,16.60
2009,07,25,00,49,16.60
2009,07,25,00,50,16.60
2009,07,25,00,51,16.60
2009,07,25,00,52,16.60
2009,07,25,00,53,16.60
2009,07,25,00,54,16.60
2009,07,25,00,55,16.60
2009,07,25,00,56,16.60
2009,07,25,00,57,16.60
2009,07,25,00,58,16.60
2009,07,25,00,59,16.60
2009,07,25,01,00,16.60
2009,07,25,01,01,16.60
2009,07,25,01,02,16.60
2009,07,25,01,03,16.60
2009,07,25,01,04,16.60
2009,07,25,01,05,16.60
2009,07,25,01,06,16.60
2009,07,25,01,07,16.60
2009,07,25,01,08,16.70
2009,07,25,01,09,16.70
2009,07,25,01,10,16.70
2009,07,25,01,11,16.60
2009,07,25,01,12,16.60
2009,07,25,01,13,16.60
2009,07,25,01,14,16.60
2009,07,25,01,15,16.60
2009,07,25,01,16,16.60
2009,07,25,01,17,16.60
2009,07,25,01,18,16.60
2009,07,25,01,19,16.60
2009,07,25,01,20,16.60
2009,07,25,01,21,16.60
2009,07,25,01,22,16.60
2009,07,25,01,23,16.70
2009,07,25,01,24,16.70
2009,07,25,01,25,16.70
2009,07,25,01,26,16.70
2009,07,25,01,27,16.70
2009,07,25,01,28,16.70
2009,07,25,01,29,16.70
2009,07,25,01,30,16.70
2009,07,25,01,31,16.70
2009,07,25,01,32,16.70
2009,07,25,01,33,16.70
2009,07,25,01,34,16.70
2009,07,25,01,35,16.70
2009,07,25,01,36,16.70
2009,07,25,01,37,16.70
2009,07,25,01,38,16.70
2009,07,25,01,39,16.80
2009,07,25,01,40,16.90
2009,07,25,01,41,17.10
2009,07,25,01,42,17.20
2009,07,25,01,43,17.30
2009,07,25,01,44,17.40
2009,07,25,01,45,17.50
2009,07,25,01,46,17.60
2009,07,25,01,47,17.70
2009,07,25,01,48,17.80
2009,07,25,01,49,17.90
2009,07,25,01,50,17.90
2009,07,25,01,51,18.00
2009,07,25,01,52,18.10
2009,07,25,01,53,18.20
2009,07,25,01,54,18.20
2009,07,25,01,55,18.30
2009,07,25,01,56,18.30
2009,07,25,01,57,18.40
2009,07,25,01,58,18.40
2009,07,25,01,59,18.50
2009,07,25,02,00,18.50
2009,07,25,02,01,18.60
2009,07,25,02,02,18.60
2009,07,25,02,03,18.70
2009,07,25,02,04,18.70
2009,07,25,02,05,18.70
2009,07,25,02,06,18.80
2009,07,25,02,07,18.80
2009,07,25,02,08,18.90
2009,07,25,02,09,18.90
2009,07,25,02,10,18.90
2009,07,25,02,11,18.90
2009,07,25,02,12,19.00
2009,07,25,02,13,19.00
2009,07,25,02,14,19.00
2009,07,25,02,15,19.00
2009,07,25,02,16,19.00
2009,07,25,02,17,19.10
2009,07,25,02,18,19.10
2009,07,25,02,19,19.10
2009,07,25,02,20,19.20
2009,07,25,02,21,19.20
2009,07,25,02,22,19.20
2009,07,25,02,23,19.20
2009,07,25,02,24,19.10
2009,07,25,02,25,19.10
2009,07,25,02,26,19.10
2009,07,25,02,27,19.10
2009,07,25,02,28,19.10
2009,07,25,02,29,19.10
2009,07,25,02,30,19.10
2009,07,25,02,31,19.10
2009,07,25,02,32,19.10
2009,07,25,02,33,19.10
2009,07,25,02,34,19.10
2009,07,25,02,35,19.20
2009,07,25,02,36,19.20
2009,07,25,02,37,19.20
2009,07,25,02,38,19.10
2009,07,25,02,39,19.10
2009,07,25,02,40,19.10
2009,07,25,02,41,19.10
2009,07,25,02,42,19.10
2009,07,25,02,43,19.10
2009,07,25,02,44,19.00
2009,07,25,02,45,19.00
2009,07,25,02,46,19.00
2009,07,25,02,47,19.00
2009,07,25,02,48,19.00
2009,07,25,02,49,19.00
2009,07,25,02,50,19.00
2009,07,25,02,51,18.90
2009,07,25,02,52,18.90
2009,07,25,02,53,18.90
2009,07,25,02,54,18.80
2009,07,25,02,55,18.80
2009,07,25,02,56,18.80
2009,07,25,02,57,18.80
2009,07,25,02,58,18.70
2009,07,25,02,59,18.70
2009,07,25,03,00,18.70
2009,07,25,03,01,18.70
2009,07,25,03,02,18.60
2009,07,25,03,03,18.60
2009,07,25,03,04,18.60
2009,07,25,03,05,18.50
2009,07,25,03,06,18.50
2009,07,25,03,07,18.50
2009,07,25,03,08,18.40
2009,07,25,03,09,18.40
2009,07,25,03,10,18.30
2009,07,25,03,11,18.30
2009,07,25,03,12,18.20
2009,07,25,03,13,18.20
2009,07,25,03,14,18.10
2009,07,25,03,15,18.10
2009,07,25,03,16,18.10
2009,07,25,03,17,18.10
2009,07,25,03,18,18.00
2009,07,25,03,19,18.00
2009,07,25,03,20,18.00
2009,07,25,03,21,18.00
2009,07,25,03,22,18.00
2009,07,25,03,23,17.90
2009,07,25,03,24,17.90
2009,07,25,03,25,17.80
2009,07,25,03,26,17.70
2009,07,25,03,27,17.70
2009,07,25,03,28,17.60
2009,07,25,03,29,17.50
2009,07,25,03,30,17.50
2009,07,25,03,31,17.40
2009,07,25,03,32,17.30
2009,07,25,03,33,17.30
2009,07,25,03,34,17.20
2009,07,25,03,35,17.20
2009,07,25,03,36,17.20
2009,07,25,03,37,17.10
2009,07,25,03,38,17.10
2009,07,25,03,39,17.10
2009,07,25,03,40,17.00
2009,07,25,03,41,17.00
2009,07,25,03,42,17.00
2009,07,25,03,43,16.90
2009,07,25,03,44,16.90
2009,07,25,03,45,16.90
2009,07,25,03,46,16.90
2009,07,25,03,47,16.90
2009,07,25,03,48,16.80
2009,07,25,03,49,16.80
2009,07,25,03,50,16.80
2009,07,25,03,51,16.80
2009,07,25,03,52,16.80
2009,07,25,03,53,16.80
2009,07,25,03,54,16.80
2009,07,25,03,55,16.70
2009,07,25,03,56,16.70
2009,07,25,03,57,16.70
2009,07,25,03,58,16.70
2009,07,25,03,59,16.70
2009,07,25,04,00,16.60
2009,07,25,04,01,16.60
2009,07,25,04,02,16.60
2009,07,25,04,03,16.60
2009,07,25,04,04,16.60
2009,07,25,04,05,16.60
2009,07,25,04,06,16.50
2009,07,25,04,07,16.50
2009,07,25,04,08,16.40
2009,07,25,04,09,16.40
2009,07,25,04,10,16.40
2009,07,25,04,11,16.30
2009,07,25,04,12,16.30
2009,07,25,04,13,16.30
2009,07,25,04,14,16.30
2009,07,25,04,15,16.30
2009,07,25,04,16,16.20
2009,07,25,04,17,16.20
2009,07,25,04,18,16.20
2009,07,25,04,19,16.20
2009,07,25,04,20,16.20
2009,07,25,04,21,16.20
2009,07,25,04,22,16.20
2009,07,25,04,23,16.20
2009,07,25,04,24,16.20
2009,07,25,04,25,16.10
2009,07,25,04,26,16.10
2009,07,25,04,27,16.10
2009,07,25,04,28,16.10
2009,07,25,04,29,16.10
2009,07,25,04,30,16.10
2009,07,25,04,31,16.10
2009,07,25,04,32,16.00
2009,07,25,04,33,16.00
2009,07,25,04,34,16.00
2009,07,25,04,35,16.00
2009,07,25,04,36,16.00
2009,07,25,04,37,16.00
2009,07,25,04,38,15.90
2009,07,25,04,39,15.90
2009,07,25,04,40,15.90
2009,07,25,04,41,15.90
2009,07,25,04,42,15.90
2009,07,25,04,43,15.90
2009,07,25,04,44,15.90
2009,07,25,04,45,15.80
2009,07,25,04,46,15.80
2009,07,25,04,47,15.80
2009,07,25,04,48,15.80
2009,07,25,04,49,15.80
2009,07,25,04,50,15.70
2009,07,25,04,51,15.70
2009,07,25,04,52,15.70
2009,07,25,04,53,15.70
2009,07,25,04,54,15.70
2009,07,25,04,55,15.70
2009,07,25,04,56,15.70
2009,07,25,04,57,15.70
2009,07,25,04,58,15.70
2009,07,25,04,59,15.70
2009,07,25,05,00,15.60
2009,07,25,05,01,15.60
2009,07,25,05,02,15.60
2009,07,25,05,03,15.60
2009,07,25,05,04,15.60
2009,07,25,05,05,15.60
2009,07,25,05,06,15.60
2009,07,25,05,07,15.50
2009,07,25,05,08,15.50
2009,07,25,05,09,15.50
2009,07,25,05,10,15.50
2009,07,25,05,11,15.60
2009,07,25,05,12,15.60
2009,07,25,05,13,15.60
2009,07,25,05,14,15.70
2009,07,25,05,15,15.80
2009,07,25,05,16,15.80
2009,07,25,05,17,15.90
2009,07,25,05,18,16.00
2009,07,25,05,19,16.20
2009,07,25,05,20,16.30
2009,07,25,05,21,16.40
2009,07,25,05,22,16.50
2009,07,25,05,23,16.60
2009,07,25,05,24,16.70
2009,07,25,05,25,16.70
2009,07,25,05,26,16.80
2009,07,25,05,27,16.80
2009,07,25,05,28,16.80
2009,07,25,05,29,16.80
2009,07,25,05,30,16.80
2009,07,25,05,31,16.80
2009,07,25,05,32,16.80
2009,07,25,05,33,16.80
2009,07,25,05,34,16.80
2009,07,25,05,35,16.90
2009,07,25,05,36,16.90
2009,07,25,05,37,16.90
2009,07,25,05,38,16.90
2009,07,25,05,39,16.90
2009,07,25,05,40,16.90
2009,07,25,05,41,16.90
2009,07,25,05,42,16.80
2009,07,25,05,43,16.90
2009,07,25,05,44,16.90
2009,07,25,05,45,16.90
2009,07,25,05,46,16.90
2009,07,25,05,47,16.90
2009,07,25,05,48,16.90
2009,07,25,05,49,16.90
2009,07,25,05,50,16.90
2009,07,25,05,51,16.90
2009,07,25,05,52,17.00
2009,07,25,05,53,17.10
2009,07,25,05,54,17.20
2009,07,25,05,55,17.30
2009,07,25,05,56,17.30
2009,07,25,05,57,17.40
2009,07,25,05,58,17.40
2009,07,25,05,59,17.50
2009,07,25,06,00,17.60
2009,07,25,06,01,17.60
2009,07,25,06,02,17.60
2009,07,25,06,03,17.70
2009,07,25,06,04,17.70
2009,07,25,06,05,17.70
2009,07,25,06,06,17.70
2009,07,25,06,07,17.70
2009,07,25,06,08,17.70
2009,07,25,06,09,17.70
2009,07,25,06,10,17.70
2009,07,25,06,11,17.70
2009,07,25,06,12,17.80
2009,07,25,06,13,17.80
2009,07,25,06,14,17.80
2009,07,25,06,15,17.70
2009,07,25,06,16,17.70
2009,07,25,06,17,17.70
2009,07,25,06,18,17.70
2009,07,25,06,19,17.70
2009,07,25,06,20,17.70
2009,07,25,06,21,17.70
2009,07,25,06,22,17.70
2009,07,25,06,23,17.70
2009,07,25,06,24,17.70
2009,07,25,06,25,17.70
2009,07,25,06,26,17.70
2009,07,25,06,27,17.70
2009,07,25,06,28,17.70
2009,07,25,06,29,17.70
2009,07,25,06,30,17.70
2009,07,25,06,31,17.80
2009,07,25,06,32,17.80
2009,07,25,06,33,17.80
2009,07,25,06,34,17.80
2009,07,25,06,35,17.90
2009,07,25,06,36,17.90
2009,07,25,06,37,18.00
2009,07,25,06,38,18.00
2009,07,25,06,39,18.10
2009,07,25,06,40,18.10
2009,07,25,06,41,18.20
2009,07,25,06,42,18.20
2009,07,25,06,43,18.30
2009,07,25,06,44,18.30
2009,07,25,06,45,18.30
2009,07,25,06,46,18.30
2009,07,25,06,47,18.40
2009,07,25,06,48,18.40
2009,07,25,06,49,18.40
2009,07,25,06,50,18.40
2009,07,25,06,51,18.40
2009,07,25,06,52,18.40
2009,07,25,06,53,18.40
2009,07,25,06,54,18.40
2009,07,25,06,55,18.40
2009,07,25,06,56,18.40
2009,07,25,06,57,18.40
2009,07,25,06,58,18.40
2009,07,25,06,59,18.40
2009,07,25,07,00,18.40
2009,07,25,07,01,18.40
2009,07,25,07,02,18.40
2009,07,25,07,03,18.50
2009,07,25,07,04,18.50
2009,07,25,07,05,18.50
2009,07,25,07,06,18.60
2009,07,25,07,07,18.60
2009,07,25,07,08,18.60
2009,07,25,07,09,18.60
2009,07,25,07,10,18.60
2009,07,25,07,11,18.70
2009,07,25,07,12,18.70
2009,07,25,07,13,18.70
2009,07,25,07,14,18.70
2009,07,25,07,15,18.70
2009,07,25,07,16,18.70
2009,07,25,07,17,18.70
2009,07,25,07,18,18.80
2009,07,25,07,19,18.80
2009,07,25,07,20,18.80
2009,07,25,07,21,18.80
2009,07,25,07,22,18.80
2009,07,25,07,23,18.80
2009,07,25,07,24,18.80
2009,07,25,07,25,18.90
2009,07,25,07,26,18.90
2009,07,25,07,27,18.90
2009,07,25,07,28,18.90
2009,07,25,07,29,18.90
2009,07,25,07,30,18.90
2009,07,25,07,31,18.90
2009,07,25,07,32,19.00
2009,07,25,07,33,19.00
2009,07,25,07,34,19.00
2009,07,25,07,35,19.00
2009,07,25,07,36,19.00
2009,07,25,07,37,19.00
2009,07,25,07,38,19.00
2009,07,25,07,39,19.10
2009,07,25,07,40,19.10
2009,07,25,07,41,19.20
2009,07,25,07,42,19.20
2009,07,25,07,43,19.20
2009,07,25,07,44,19.20
2009,07,25,07,45,19.30
2009,07,25,07,46,19.30
2009,07,25,07,47,19.30
2009,07,25,07,48,19.40
2009,07,25,07,49,19.40
2009,07,25,07,50,19.40
2009,07,25,07,51,19.40
2009,07,25,07,52,19.40
2009,07,25,07,53,19.50
2009,07,25,07,54,19.50
2009,07,25,07,55,19.50
2009,07,25,07,56,19.60
2009,07,25,07,57,19.60
2009,07,25,07,58,19.60
2009,07,25,07,59,19.60
2009,07,25,08,00,19.60
2009,07,25,08,01,19.70
2009,07,25,08,02,19.70
2009,07,25,08,03,19.70
2009,07,25,08,04,19.80
2009,07,25,08,05,19.80
2009,07,25,08,06,19.80
2009,07,25,08,07,19.80
2009,07,25,08,08,19.90
2009,07,25,08,09,19.90
2009,07,25,08,10,20.00
2009,07,25,08,11,20.00
2009,07,25,08,12,20.10
2009,07,25,08,13,20.20
2009,07,25,08,14,20.30
2009,07,25,08,15,20.40
2009,07,25,08,16,20.50
2009,07,25,08,17,20.50
2009,07,25,08,18,20.60
2009,07,25,08,19,20.70
2009,07,25,08,20,20.70
2009,07,25,08,21,20.80
2009,07,25,08,22,20.80
2009,07,25,08,23,20.80
2009,07,25,08,24,20.80
2009,07,25,08,25,20.80
2009,07,25,08,26,20.90
2009,07,25,08,27,20.90
2009,07,25,08,28,21.00
2009,07,25,08,29,21.00
2009,07,25,08,30,21.00
2009,07,25,08,31,21.10
2009,07,25,08,32,21.10
2009,07,25,08,33,21.20
2009,07,25,08,34,21.20
2009,07,25,08,35,21.20
2009,07,25,08,36,21.20
2009,07,25,08,37,21.20
2009,07,25,08,38,21.30
2009,07,25,08,39,21.30
2009,07,25,08,40,21.30
2009,07,25,08,41,21.40
2009,07,25,08,42,21.40
2009,07,25,08,43,21.50
2009,07,25,08,44,21.50
2009,07,25,08,45,21.60
2009,07,25,08,46,21.60
2009,07,25,08,47,21.70
2009,07,25,08,48,21.70
2009,07,25,08,49,21.70
2009,07,25,08,50,21.70
2009,07,25,08,51,21.80
2009,07,25,08,52,21.70
2009,07,25,08,53,21.70
2009,07,25,08,54,21.80
2009,07,25,08,55,21.80
2009,07,25,08,56,21.80
2009,07,25,08,57,21.80
2009,07,25,08,58,21.70
2009,07,25,08,59,21.70
2009,07,25,09,00,21.70
2009,07,25,09,01,21.70
2009,07,25,09,02,21.80
2009,07,25,09,03,21.80
2009,07,25,09,04,21.80
2009,07,25,09,05,21.80
2009,07,25,09,06,21.90
2009,07,25,09,07,21.90
2009,07,25,09,08,21.90
2009,07,25,09,09,21.90
2009,07,25,09,10,21.90
2009,07,25,09,11,21.90
2009,07,25,09,12,21.90
2009,07,25,09,13,21.90
2009,07,25,09,14,21.90
2009,07,25,09,15,21.90
2009,07,25,09,16,22.00
2009,07,25,09,17,22.00
2009,07,25,09,18,22.00
2009,07,25,09,19,21.90
2009,07,25,09,20,21.80
2009,07,25,09,21,21.80
2009,07,25,09,22,21.70
2009,07,25,09,23,21.70
2009,07,25,09,24,21.70
2009,07,25,09,25,21.70
2009,07,25,09,26,21.60
2009,07,25,09,27,21.60
2009,07,25,09,28,21.60
2009,07,25,09,29,21.70
2009,07,25,09,30,21.70
2009,07,25,09,31,21.70
2009,07,25,09,32,21.70
2009,07,25,09,33,21.80
2009,07,25,09,34,21.80
2009,07,25,09,35,21.90
2009,07,25,09,36,22.00
2009,07,25,09,37,22.00
2009,07,25,09,38,22.10
2009,07,25,09,39,22.10
2009,07,25,09,40,22.20
2009,07,25,09,41,22.30
2009,07,25,09,42,22.30
2009,07,25,09,43,22.40
2009,07,25,09,44,22.60
2009,07,25,09,45,22.60
2009,07,25,09,46,22.80
2009,07,25,09,47,22.80
2009,07,25,09,48,22.80
2009,07,25,09,49,22.90
2009,07,25,09,50,22.90
2009,07,25,09,51,22.80
2009,07,25,09,52,22.70
2009,07,25,09,53,22.60
2009,07,25,09,54,22.60
2009,07,25,09,55,22.50
2009,07,25,09,56,22.40
2009,07,25,09,57,22.50
2009,07,25,09,58,22.50
2009,07,25,09,59,22.50
2009,07,25,10,00,22.50
2009,07,25,10,01,22.50
2009,07,25,10,02,22.50
2009,07,25,10,03,22.50
2009,07,25,10,04,22.50
2009,07,25,10,05,22.50
2009,07,25,10,06,22.50
2009,07,25,10,07,22.50
2009,07,25,10,08,22.40
2009,07,25,10,09,22.40
2009,07,25,10,10,22.40
2009,07,25,10,11,22.40
2009,07,25,10,12,22.30
2009,07,25,10,13,22.20
2009,07,25,10,14,22.20
2009,07,25,10,15,22.30
2009,07,25,10,16,22.20
2009,07,25,10,17,22.20
2009,07,25,10,18,22.10
2009,07,25,10,19,22.10
2009,07,25,10,20,22.10
2009,07,25,10,21,22.20
2009,07,25,10,22,22.20
2009,07,25,10,23,22.20
2009,07,25,10,24,22.20
2009,07,25,10,25,22.10
2009,07,25,10,26,22.10
2009,07,25,10,27,22.10
2009,07,25,10,28,22.20
2009,07,25,10,29,22.20
2009,07,25,10,30,22.20
2009,07,25,10,31,22.30
2009,07,25,10,32,22.30
2009,07,25,10,33,22.40
2009,07,25,10,34,22.50
2009,07,25,10,35,22.60
2009,07,25,10,36,22.70
2009,07,25,10,37,22.70
2009,07,25,10,38,22.70
2009,07,25,10,39,22.80
2009,07,25,10,40,22.80
2009,07,25,10,41,22.90
2009,07,25,10,42,22.90
2009,07,25,10,43,23.00
2009,07,25,10,44,23.00
2009,07,25,10,45,22.90
2009,07,25,10,46,22.90
2009,07,25,10,47,22.90
2009,07,25,10,48,23.00
2009,07,25,10,49,23.00
2009,07,25,10,50,23.10
2009,07,25,10,51,23.10
2009,07,25,10,52,23.20
2009,07,25,10,53,23.30
2009,07,25,10,54,23.30
2009,07,25,10,55,23.40
2009,07,25,10,56,23.40
2009,07,25,10,57,23.40
2009,07,25,10,58,23.30
2009,07,25,10,59,23.40
2009,07,25,11,00,23.40
2009,07,25,11,01,23.40
2009,07,25,11,02,23.40
2009,07,25,11,03,23.50
2009,07,25,11,04,23.50
2009,07,25,11,05,23.50
2009,07,25,11,06,23.60
2009,07,25,11,07,23.70
2009,07,25,11,08,23.80
2009,07,25,11,09,23.80
2009,07,25,11,10,23.80
2009,07,25,11,11,23.70
2009,07,25,11,12,23.70
2009,07,25,11,13,23.60
2009,07,25,11,14,23.50
2009,07,25,11,15,23.40
2009,07,25,11,16,23.40
2009,07,25,11,17,23.30
2009,07,25,11,18,23.30
2009,07,25,11,19,23.30
2009,07,25,11,20,23.30
2009,07,25,11,21,23.30
2009,07,25,11,22,23.30
2009,07,25,11,23,23.40
2009,07,25,11,24,23.50
2009,07,25,11,25,23.70
2009,07,25,11,26,23.70
2009,07,25,11,27,23.70
2009,07,25,11,28,23.70
2009,07,25,11,29,23.70
2009,07,25,11,30,23.70
2009,07,25,11,31,23.80
2009,07,25,11,32,23.80
2009,07,25,11,33,23.80
2009,07,25,11,34,23.80
2009,07,25,11,35,23.80
2009,07,25,11,36,23.80
2009,07,25,11,37,23.80
2009,07,25,11,38,23.80
2009,07,25,11,39,23.80
2009,07,25,11,40,23.80
2009,07,25,11,41,23.80
2009,07,25,11,42,23.80
2009,07,25,11,43,23.80
2009,07,25,11,44,23.90
2009,07,25,11,45,23.90
2009,07,25,11,46,24.00
2009,07,25,11,47,24.10
2009,07,25,11,48,24.20
2009,07,25,11,49,24.20
2009,07,25,11,50,24.20
2009,07,25,11,51,24.20
2009,07,25,11,52,24.20
2009,07,25,11,53,24.20
2009,07,25,11,54,24.10
2009,07,25,11,55,24.10
2009,07,25,11,56,24.10
2009,07,25,11,57,24.10
2009,07,25,11,58,24.10
2009,07,25,11,59,24.20
2009,07,25,12,00,24.10
2009,07,25,12,01,24.10
2009,07,25,12,02,24.10
2009,07,25,12,03,24.10
2009,07,25,12,04,24.10
2009,07,25,12,05,24.10
2009,07,25,12,06,24.10
2009,07,25,12,07,24.00
2009,07,25,12,08,24.00
2009,07,25,12,09,24.10
2009,07,25,12,10,24.10
2009,07,25,12,11,24.10
2009,07,25,12,12,24.20
2009,07,25,12,13,24.20
2009,07,25,12,14,24.20
2009,07,25,12,15,24.30
2009,07,25,12,16,24.30
2009,07,25,12,17,24.40
2009,07,25,12,18,24.40
2009,07,25,12,19,24.40
2009,07,25,12,20,24.40
2009,07,25,12,21,24.40
2009,07,25,12,22,24.50
2009,07,25,12,23,24.50
2009,07,25,12,24,24.50
2009,07,25,12,25,24.60
2009,07,25,12,26,24.60
2009,07,25,12,27,24.70
2009,07,25,12,28,24.70
2009,07,25,12,29,24.80
2009,07,25,12,30,24.80
2009,07,25,12,31,24.90
2009,07,25,12,32,25.00
2009,07,25,12,33,25.10
2009,07,25,12,34,25.10
2009,07,25,12,35,25.10
2009,07,25,12,36,25.20
2009,07,25,12,37,25.30
2009,07,25,12,38,25.40
2009,07,25,12,39,25.30
2009,07,25,12,40,25.30
2009,07,25,12,41,25.30
2009,07,25,12,42,25.20
2009,07,25,12,43,25.20
2009,07,25,12,44,25.10
2009,07,25,12,45,25.10
2009,07,25,12,46,25.10
2009,07,25,12,47,25.10
2009,07,25,12,48,25.20
2009,07,25,12,49,25.30
2009,07,25,12,50,25.40
2009,07,25,12,51,25.30
2009,07,25,12,52,25.30
2009,07,25,12,53,25.30
2009,07,25,12,54,25.20
2009,07,25,12,55,25.30
2009,07,25,12,56,25.30
2009,07,25,12,57,25.50
2009,07,25,12,58,25.50
2009,07,25,12,59,25.50
2009,07,25,13,00,25.40
2009,07,25,13,01,25.40
2009,07,25,13,02,25.40
2009,07,25,13,03,25.40
2009,07,25,13,04,25.50
2009,07,25,13,05,25.60
2009,07,25,13,06,25.60
2009,07,25,13,07,25.70
2009,07,25,13,08,25.80
2009,07,25,13,09,25.80
2009,07,25,13,10,25.80
2009,07,25,13,11,25.80
2009,07,25,13,12,25.80
2009,07,25,13,13,25.80
2009,07,25,13,14,25.80
2009,07,25,13,15,25.70
2009,07,25,13,16,25.70
2009,07,25,13,17,25.70
2009,07,25,13,18,25.70
2009,07,25,13,19,25.70
2009,07,25,13,20,25.80
2009,07,25,13,21,25.80
2009,07,25,13,22,25.80
2009,07,25,13,23,25.80
2009,07,25,13,24,25.80
2009,07,25,13,25,25.80
2009,07,25,13,26,25.80
2009,07,25,13,27,25.80
2009,07,25,13,28,25.80
2009,07,25,13,29,25.80
2009,07,25,13,30,25.80
2009,07,25,13,31,25.90
2009,07,25,13,32,25.90
2009,07,25,13,33,25.90
2009,07,25,13,34,25.90
2009,07,25,13,35,25.90
2009,07,25,13,36,25.80
2009,07,25,13,37,25.80
2009,07,25,13,38,25.80
2009,07,25,13,39,25.80
2009,07,25,13,40,25.90
2009,07,25,13,41,25.90
2009,07,25,13,42,25.90
2009,07,25,13,43,25.90
2009,07,25,13,44,25.80
2009,07,25,13,45,25.80
2009,07,25,13,46,25.80
2009,07,25,13,47,25.90
2009,07,25,13,48,26.00
2009,07,25,13,49,26.00
2009,07,25,13,50,25.90
2009,07,25,13,51,25.90
2009,07,25,13,52,26.00
2009,07,25,13,53,26.00
2009,07,25,13,54,26.10
2009,07,25,13,55,26.20
2009,07,25,13,56,26.20
2009,07,25,13,57,26.30
2009,07,25,13,58,26.30
2009,07,25,13,59,26.30
2009,07,25,14,00,26.30
2009,07,25,14,01,26.30
2009,07,25,14,02,26.30
2009,07,25,14,03,26.30
2009,07,25,14,04,26.30
2009,07,25,14,05,26.30
2009,07,25,14,06,26.30
2009,07,25,14,07,26.50
2009,07,25,14,08,26.40
2009,07,25,14,09,26.40
2009,07,25,14,10,26.40
2009,07,25,14,11,26.40
2009,07,25,14,12,26.50
2009,07,25,14,13,26.50
2009,07,25,14,14,26.60
2009,07,25,14,15,26.70
2009,07,25,14,16,26.70
2009,07,25,14,17,26.70
2009,07,25,14,18,26.70
2009,07,25,14,19,26.70
2009,07,25,14,20,26.70
2009,07,25,14,21,26.80
2009,07,25,14,22,26.70
2009,07,25,14,23,26.70
2009,07,25,14,24,26.70
2009,07,25,14,25,26.70
2009,07,25,14,26,26.90
2009,07,25,14,27,27.00
2009,07,25,14,28,27.00
2009,07,25,14,29,27.10
2009,07,25,14,30,27.10
2009,07,25,14,31,27.00
2009,07,25,14,32,27.00
2009,07,25,14,33,26.90
2009,07,25,14,34,26.90
2009,07,25,14,35,26.80
2009,07,25,14,36,26.90
2009,07,25,14,37,26.90
2009,07,25,14,38,27.00
2009,07,25,14,39,26.90
2009,07,25,14,40,27.00
2009,07,25,14,41,27.00
2009,07,25,14,42,27.00
2009,07,25,14,43,26.90
2009,07,25,14,44,27.00
2009,07,25,14,45,27.00
2009,07,25,14,46,27.10
2009,07,25,14,47,27.20
2009,07,25,14,48,27.10
2009,07,25,14,49,27.10
2009,07,25,14,50,27.10
2009,07,25,14,51,27.10
2009,07,25,14,52,27.10
2009,07,25,14,53,27.00
2009,07,25,14,54,27.00
2009,07,25,14,55,26.90
2009,07,25,14,56,27.00
2009,07,25,14,57,27.10
2009,07,25,14,58,27.20
2009,07,25,14,59,27.30
2009,07,25,15,00,27.40
2009,07,25,15,01,27.40
2009,07,25,15,02,27.50
2009,07,25,15,03,27.60
2009,07,25,15,04,27.70
2009,07,25,15,05,27.60
2009,07,25,15,06,27.60
2009,07,25,15,07,27.50
2009,07,25,15,08,27.50
2009,07,25,15,09,27.50
2009,07,25,15,10,27.50
2009,07,25,15,11,27.50
2009,07,25,15,12,27.40
2009,07,25,15,13,27.40
2009,07,25,15,14,27.40
2009,07,25,15,15,27.40
2009,07,25,15,16,27.50
2009,07,25,15,17,27.50
2009,07,25,15,18,27.60
2009,07,25,15,19,27.70
2009,07,25,15,20,27.80
2009,07,25,15,21,27.90
2009,07,25,15,22,27.90
2009,07,25,15,23,27.80
2009,07,25,15,24,27.80
2009,07,25,15,25,27.80
2009,07,25,15,26,27.70
2009,07,25,15,27,27.70
2009,07,25,15,28,27.60
2009,07,25,15,29,27.70
2009,07,25,15,30,27.80
2009,07,25,15,31,27.80
2009,07,25,15,32,27.90
2009,07,25,15,33,27.90
2009,07,25,15,34,27.90
2009,07,25,15,35,27.90
2009,07,25,15,36,27.90
2009,07,25,15,37,27.80
2009,07,25,15,38,27.80
2009,07,25,15,39,27.80
2009,07,25,15,40,27.70
2009,07,25,15,41,27.70
2009,07,25,15,42,27.70
2009,07,25,15,43,27.80
2009,07,25,15,44,27.80
2009,07,25,15,45,27.80
2009,07,25,15,46,27.80
2009,07,25,15,47,27.80
2009,07,25,15,48,27.80
2009,07,25,15,49,27.80
2009,07,25,15,50,27.70
2009,07,25,15,51,27.70
2009,07,25,15,52,27.70
2009,07,25,15,53,27.70
2009,07,25,15,54,27.60
2009,07,25,15,55,27.60
2009,07,25,15,56,27.70
2009,07,25,15,57,27.80
2009,07,25,15,58,27.80
2009,07,25,15,59,27.90
2009,07,25,16,00,27.90
2009,07,25,16,01,27.90
2009,07,25,16,02,27.90
2009,07,25,16,03,27.90
2009,07,25,16,04,27.90
2009,07,25,16,05,27.90
2009,07,25,16,06,27.80
2009,07,25,16,07,27.70
2009,07,25,16,08,27.60
2009,07,25,16,09,27.60
2009,07,25,16,10,27.60
2009,07,25,16,11,27.60
2009,07,25,16,12,27.70
2009,07,25,16,13,27.70
2009,07,25,16,14,27.70
2009,07,25,16,15,27.80
2009,07,25,16,16,27.80
2009,07,25,16,17,27.70
2009,07,25,16,18,27.70
2009,07,25,16,19,27.70
2009,07,25,16,20,27.60
2009,07,25,16,21,27.60
2009,07,25,16,22,27.70
2009,07,25,16,23,27.70
2009,07,25,16,24,27.80
2009,07,25,16,25,27.80
2009,07,25,16,26,27.80
2009,07,25,16,27,27.80
2009,07,25,16,28,27.80
2009,07,25,16,29,27.80
2009,07,25,16,30,27.80
2009,07,25,16,31,27.80
2009,07,25,16,32,27.80
2009,07,25,16,33,27.90
2009,07,25,16,34,27.90
2009,07,25,16,35,27.90
2009,07,25,16,36,27.90
2009,07,25,16,37,27.90
2009,07,25,16,38,27.90
2009,07,25,16,39,27.90
2009,07,25,16,40,28.00
2009,07,25,16,41,28.10
2009,07,25,16,42,28.10
2009,07,25,16,43,28.10
2009,07,25,16,44,28.10
2009,07,25,16,45,28.10
2009,07,25,16,46,28.20
2009,07,25,16,47,28.20
2009,07,25,16,48,28.30
2009,07,25,16,49,28.30
2009,07,25,16,50,28.30
2009,07,25,16,51,28.40
2009,07,25,16,52,28.50
2009,07,25,16,53,28.50
2009,07,25,16,54,28.60
2009,07,25,16,55,28.60
2009,07,25,16,56,28.70
2009,07,25,16,57,28.70
2009,07,25,16,58,28.80
2009,07,25,16,59,28.80
2009,07,25,17,00,28.90
2009,07,25,17,01,28.90
2009,07,25,17,02,28.80
2009,07,25,17,03,28.80
2009,07,25,17,04,28.70
2009,07,25,17,05,28.70
2009,07,25,17,06,28.60
2009,07,25,17,07,28.60
2009,07,25,17,08,28.60
2009,07,25,17,09,28.70
2009,07,25,17,10,28.70
2009,07,25,17,11,28.80
2009,07,25,17,12,28.80
2009,07,25,17,13,28.70
2009,07,25,17,14,28.70
2009,07,25,17,15,28.80
2009,07,25,17,16,28.80
2009,07,25,17,17,28.80
2009,07,25,17,18,28.80
2009,07,25,17,19,28.80